SCP
0 0 0 0 0 0 0 0 0 0 0 0 0 0 0 0 0 0 -0 0 0 0 0 0 0 0 0 0 0 0 0 0 0 0 0 0 0 0 0 0 0 0 0
0 0 0 0 0 0 0 0 0 0 0 0 0 0 0 0 0 0 0 0 0 0 0 0 0 0 0 0 0 0 0 0 0 0 0 0 0 0 0 0 0 0 0
0 0 0 0 0 0 0 0 0 0 0 0 0 0 0 0 0 0 0 0 0 0 0 0 0 0 0 0 0 0 0 0 0 0 0 0 0 0 0 0 0 0 0
0 0 0 0 0 0 0 0 0 0 0 0 0 0 0 0 0 0 0 0 0 0 0 0 0 0 0 0 0 0 0 0 0 0 0 0 0 0 0 0 0 0 0
0 0 0 0 0 0 0 0 0 0 0 0 0 0 0 0 0 0 0 0 0 0 0 0 0 0 0 0 0 0 0 0 0 0 0 0 0 0 0 0 0 0 0
0 0 0 0 0 0 0 0 0 0 0 0 0 0 0 0 0 0 0 0 0 0 0 0 0 0 0 0 0 0 0 0 0 0 0 0 0 0 0 0 0 0 0
0 0 0 0 0 0 0 0 0 0 0 0 0 0 0 0 0 0 0 0 0 0 0 0 0 0 0 0 0 0 0 0 0 0 0 0 0 0 0 0 0 0 0
0 0 0 0 0 0 0 0 0 0 0 0 0 0 0 0 0 0 0 0 0 0 0 0 0 0 0 0 0 0 0 0 0 0 0 0 0 0 0 0 0 0 0
0 0 0 0 0 0 0 0 0 0 0 0 0 0 0 0 0 0 0 0 0 0 0 0 0 0 0 0 0 0 0 0 0 0 0 0 0 0 0 0 0 0 0
0 0 0 0 0 0 0 0 0 0 0 0 0 0 0 0 0 0 0 0 0 0 0 0 0 0 0 0 0 0 0 0 0 0 0 0 0 0 0 0 0 0 0
0 0 0 0 0 0 0 0 0 0 0 0 0 0 0 0 0 0 0 0 0 0 0 0 0 0 0 0 0 0 0 0 0 0 0 0 0 0 0 0 0 0 0
0 0 0 0 0 0 0 0 0 0 0 0 0 0 0 0 0 0 0 0 0 0 0 0 0 0 -0 0 0 0 0 0 0 0 0 0 0 0 0 0 0 0 0
0 0 0 0 0 0 0 0 0 0 0 0 0 0 0 0 0 0 0 0 0 0 0 0 0 0 0 0 0 0 0 0 0 0 0 0 0 0 0 0 0 0 0
0 0 0 0 0 0 0 0 0 0 0 0 0 0 0 0 0 0 0 0 0 0 0 0 0 0 0 0 0 0 0 0 0 0 0 0 0 0 0 0 0 0 0
0 0 0 0 0 0 0 0 0 0 0 0 0 0 0 0 0 0 0 0 0 0 0 0 0 0 0 0 0 0 0 0 0 0 0 0 0 0 0 0 0 0 0
0 0 0 0 0 0 0 0 0 0 0 0 0 0 0 0 0 0 0 0 0 0 0 0 0 0 0 0 0 0 0 0 0 0 0 0 0 0 0 0 0 0 0
0 0 0 0 0 0 0 0 0 0 0 0 0 0 0 0 0 0 0 0 0 0 0 0 0 0 0 0 0 0 0 0 0 0 0 0 0 0 0 0 0 0 0
0 0 0 0 0 0 0 0 0 0 0 0 0 0 0 0 0 0 0 0 0 0 0 0 0 0 0 0 0 0 0 0 0 0 0 0 0 0 0 0 0 0 0
0 0 0 0 0 0 0 0 0 0 0 0 0 0 0 0 0 0 0 0 0 0 0 0 0 0 0 0 0 0 0 0 0 0 0 0 0 0 0 0 0 0 0
0 0 0 0 0 0 0 0 0 0 0 0 0 0 0 0 0 0 0 0 0 0 0 0 0 0 0 0 0 0 0 0 0 0 0 0 0 0 0 0 0 0 0
0 0 0 0 0 0 0 0 0 0 0 0 0 0 0 0 0 0 0 0 0 0 0 0 0 0 0 0 0 0 0 0 0 0 0 0 0 0 0 0 0 0 0
0 0 0 0 0 0 0 0 0 0 0 0 0 0 0 0 0 0 0 0 0 0 0 0 0 0 0 0 0 0 0 0 0 0 0 0 0 0 0 0 0 0 0
0 0 0 0 0 0 0 0 0 0 0 0 0 0 0 0 0 0 0 0 0 0 0 0 0 0 0 0 0 0 0 0 0 0 0 0 0 0 0 0 0 0 0
0 0 0 0 0 0 0 0 0 0 0 0 0 0 0 0 0 0 0 0 0 0 0 0 0 0 0 0 0 0 0 0 0 0 0 0 0 0 0 0 0 0 0
0 0 0 0 0 0 0 0 0 0 0 0 0 0 0 0 0 0 0 0 0 0 0 0 0 0 0 0 0 0 0 0 0 0 0 0 0 0 0 0 0 0 0
0 0 0 0 0 0 0 0 0 0 0 0 0 0 0 0 0 0 0 0 0 0 0 0 0 0 0 0 0 0 0 0 0 0 0 0 0 0 0 0 0 0 0
Wind_Speed
6 5 4 4 4 3 3 3 3 3 3 3 3 3 3 3 3 3 2 5 5 6 7 6 6 5 5 4 4 3 3 2 2 2 3 3 2 1 2 3 3 4 4
6 6 5 5 4 4 4 4 4 3 3 2 3 3 4 3 3 3 3 3 6 6 6 7 7 6 5 5 4 4 3 3 3 3 3 3 2 1 2 3 4 4 5
7 6 5 5 5 4 4 3 3 3 3 3 3 4 3 4 4 4 3 3 3 5 6 7 7 6 5 5 5 5 4 3 3 3 2 2 2 1 1 2 3 4 4
7 6 5 5 5 4 4 4 3 3 3 3 2 2 3 3 4 4 3 3 3 2 4 5 5 5 5 5 5 5 5 4 3 3 2 2 2 0 1 2 3 3 4
8 6 5 5 6 5 4 5 3 3 3 3 2 2 2 3 3 3 4 4 4 3 3 3 4 4 4 4 5 6 5 4 3 3 3 3 2 1 1 2 3 3 3
8 7 5 6 6 5 5 5 4 3 3 2 2 1 2 2 2 3 4 3 3 4 3 3 2 2 3 4 4 5 5 4 3 3 3 3 2 1 1 2 2 3 3
7 7 5 6 6 6 6 6 4 4 3 2 1 1 2 2 3 3 3 3 4 4 4 3 3 2 1 2 2 3 4 4 4 4 4 3 2 1 1 2 2 3 3
6 6 6 5 6 5 6 6 5 3 3 4 3 1 2 2 3 3 3 4 4 3 4 4 4 3 2 1 1 2 3 4 4 5 5 4 2 1 1 1 2 3 3
7 6 7 6 6 6 6 7 7 6 4 4 4 4 3 4 2 2 3 3 4 4 4 3 4 4 3 2 2 3 3 3 5 5 4 3 2 1 1 2 3 3 3
5 6 6 5 5 5 6 6 7 5 5 5 4 3 3 3 3 2 2 3 4 4 5 4 4 4 4 3 3 3 3 3 4 4 4 4 3 2 2 3 3 3 3
4 4 5 5 5 5 5 6 6 6 5 6 4 3 3 2 3 3 4 3 3 4 4 4 4 4 4 3 3 4 4 4 4 4 4 3 2 1 1 2 2 2 3
2 3 4 5 5 4 5 5 6 7 6 6 5 4 3 3 3 4 4 3 4 3 3 4 4 4 4 4 4 5 5 5 4 5 4 3 1 0 1 1 2 2 3
1 2 2 3 3 4 4 4 5 5 6 6 6 5 5 4 3 3 3 3 3 2 2 3 4 4 4 4 4 6 5 5 5 5 4 3 2 1 0 1 2 2 3
2 2 2 3 3 4 4 4 4 5 5 6 7 6 5 4 4 4 4 3 3 3 4 5 3 4 4 4 5 7 4 6 6 5 4 3 3 2 1 1 2 2 3
1 1 1 1 2 3 3 4 4 6 5 6 7 7 5 4 4 4 3 4 5 5 6 5 4 4 5 4 6 4 4 7 7 6 5 5 4 3 2 1 2 2 3
0 1 1 1 1 2 2 2 3 4 6 6 6 7 6 4 4 4 4 4 4 5 5 3 4 3 5 4 7 5 5 8 8 7 7 6 5 4 3 2 2 2 3
0 1 1 1 2 2 2 3 3 4 6 7 6 7 8 6 5 5 4 4 4 4 5 2 2 2 5 6 5 4 4 4 4 8 8 7 6 5 4 3 2 2 3
1 1 1 1 2 2 2 3 4 5 6 7 7 7 8 6 7 6 5 6 5 4 4 4 3 3 4 6 6 6 4 4 4 7 8 7 7 6 5 4 2 1 2
2 2 1 2 2 3 3 3 4 5 6 7 7 7 7 8 8 6 6 6 5 4 4 4 4 2 2 4 5 4 4 3 3 5 7 8 8 7 6 4 3 1 1
2 3 3 2 3 3 4 4 4 5 6 6 6 6 7 8 8 8 7 7 5 5 4 4 4 3 3 4 5 5 4 3 3 2 4 5 7 7 6 4 3 2 1
3 3 3 3 3 3 3 5 5 5 5 6 5 5 6 8 9 8 6 6 6 5 5 5 4 4 4 6 7 5 5 3 2 2 2 2 3 3 3 3 3 3 1
3 4 4 4 4 4 7 8 7 5 5 5 6 6 6 6 7 8 9 9 9 8 7 6 5 7 7 6 6 6 5 4 3 3 3 2 2 3 2 2 3 3 3
4 4 4 4 5 6 10 10 9 6 5 6 6 5 5 5 6 5 6 7 8 10 10 8 8 8 8 9 9 8 7 5 4 5 4 3 2 2 2 2 5 4 4
5 4 5 5 5 7 11 11 10 6 5 5 5 5 5 5 5 5 4 4 4 5 6 6 7 7 7 8 10 9 8 5 3 2 3 3 3 2 2 1 4 5 4
4 4 4 5 5 7 10 11 11 5 4 5 4 4 4 5 6 5 3 3 3 3 2 3 4 5 8 10 10 7 7 6 3 3 2 3 3 2 1 1 2 3 4
4 4 5 5 5 5 10 12 12 4 5 4 4 4 5 6 6 5 3 3 4 3 1 1 2 3 5 9 12 9 8 7 5 3 4 4 3 3 2 1 0 0 1
Wind_Direction
166 165 168 170 171 169 172 171 171 176 182 188 195 195 201 207 208 210 232 232 230 228 220 217 217 215 220 228 233 241 244 240 246 234 224 218 228 273 302 318 323 327 332
170 170 173 178 181 182 181 182 184 187 195 194 205 207 209 208 212 209 215 232 233 229 225 222 224 223 229 235 237 238 236 239 240 245 224 212 214 244 290 314 313 316 319
174 176 178 187 190 184 180 183 189 184 197 204 214 216 213 212 210 215 213 216 228 231 228 228 229 229 233 239 237 235 229 232 228 225 204 193 199 227 293 324 324 324 321
177 178 182 191 188 183 183 188 193 195 206 210 218 222 217 212 216 216 212 210 212 219 224 222 226 235 237 240 234 232 226 222 213 207 201 186 173 200 318 323 322 322 327
182 182 187 190 183 186 191 197 197 197 204 211 217 225 220 218 222 215 214 213 209 202 199 200 204 222 237 246 241 232 220 206 198 194 198 186 180 203 313 319 322 320 324
185 185 189 190 184 188 195 198 196 196 199 195 207 236 242 230 218 214 216 212 207 201 193 189 189 213 219 234 243 237 212 192 188 187 185 177 178 197 292 308 323 324 326
186 187 192 191 192 195 200 197 192 194 199 168 155 257 280 242 227 226 213 204 206 201 186 187 188 190 210 219 239 225 197 201 208 204 192 184 195 220 277 302 327 336 338
193 191 191 194 195 196 198 197 190 187 199 181 170 183 247 265 241 226 214 210 209 195 194 196 191 189 185 183 205 203 200 212 220 206 192 194 207 245 272 331 329 332 333
196 195 195 196 199 199 204 204 199 194 205 207 196 191 200 224 236 234 219 215 209 202 202 197 198 193 188 185 190 201 195 204 219 212 201 195 199 226 278 307 311 317 325
200 198 195 198 203 206 207 206 206 206 197 209 214 221 223 198 205 231 232 218 213 214 210 203 196 193 187 185 187 189 190 199 212 209 210 200 203 227 273 287 296 308 325
196 198 198 199 205 209 215 213 208 211 209 213 211 204 218 235 221 220 240 222 218 218 213 207 200 195 190 189 188 190 187 198 210 210 202 185 194 245 285 299 315 328 333
207 208 210 203 206 211 214 218 215 213 218 221 220 215 212 212 213 216 232 227 224 214 211 206 202 199 193 191 195 185 184 193 207 213 202 180 170 202 324 325 331 344 342
220 233 229 216 211 218 218 219 224 223 221 225 225 228 230 231 220 222 225 230 237 224 205 214 209 199 194 191 193 184 189 189 196 201 194 184 168 132 92 342 347 353 347
221 238 229 227 213 215 218 217 224 227 224 227 231 233 240 238 227 221 213 203 236 239 218 218 202 199 191 191 194 185 192 187 190 193 188 174 146 119 102 55 34 14 359
228 221 226 249 239 226 226 223 229 229 228 227 229 231 239 241 236 232 221 208 206 230 233 208 199 196 192 189 187 184 186 190 186 183 172 164 155 143 119 86 73 27 2
305 240 236 247 266 248 236 239 245 240 233 233 229 228 234 238 234 229 227 229 224 223 238 207 199 187 185 186 190 184 193 188 185 178 172 170 166 156 139 122 93 33 5
311 285 272 267 270 276 265 248 254 251 242 241 236 230 233 232 230 229 226 223 226 221 235 236 188 181 182 184 182 182 185 183 182 181 179 176 172 162 152 137 104 47 12
315 286 283 283 291 295 288 272 266 259 251 250 246 237 235 233 232 229 226 227 226 219 215 225 204 187 193 188 181 182 183 181 180 185 183 181 175 167 159 150 132 78 26
350 344 318 297 291 291 288 281 278 278 266 256 251 245 241 234 233 228 225 227 227 222 212 206 205 193 189 178 174 175 176 172 185 186 187 185 180 172 168 165 154 117 45
4 355 342 321 304 297 288 288 289 284 279 270 261 255 247 240 236 228 226 225 223 218 212 203 198 190 185 173 172 177 181 179 183 177 185 178 173 169 167 166 158 136 93
6 355 346 336 324 308 301 306 299 293 284 280 279 268 256 253 252 243 236 226 218 218 213 209 202 192 188 181 188 177 182 167 176 173 160 161 151 149 160 165 163 157 135
6 2 354 344 334 325 321 319 315 303 292 282 282 282 274 252 253 256 252 243 230 220 217 214 213 207 204 195 179 174 163 164 193 182 160 172 151 162 170 172 186 174 159
10 4 356 350 336 325 330 328 323 312 293 281 276 279 285 279 273 255 253 251 244 238 226 217 219 214 200 192 178 177 180 177 181 168 153 171 161 175 182 193 192 180 166
2 353 348 342 335 333 338 333 327 314 293 293 289 279 273 273 264 261 249 247 247 245 235 225 222 217 206 191 185 178 166 137 99 136 154 162 166 173 162 186 203 188 174
359 350 338 333 330 330 340 340 337 317 312 312 308 299 290 281 273 275 251 239 252 264 261 223 210 200 193 186 170 149 151 154 157 177 174 148 149 137 138 186 214 193 177
350 346 348 344 337 334 341 345 342 330 325 325 325 314 300 298 287 280 244 219 224 236 187 157 149 162 174 176 176 174 168 166 152 170 179 150 145 138 151 190 179 158 165